sat.trackr.live / text

‹ back to catalog

HJS-9A

NORAD 68831 · 2026-091A

PAYLOAD ACTIVE UNKNOWN

§ Identity

Operator
Country
PRC
Launch date
2026-04-24
Launch site
XICLF
Launch vehicle
Mass (kg)
RCS (m²)

External: N2YO · Heavens-Above · Gunter

§ Orbital elements

Epoch: 2026-09-20T01:45:42.134112Z

Period
94.78 min
Inclination
55.0049°
Eccentricity
0.0007485
Mean motion
15.19252052 rev/d
Perigee alt
502.9 km
Apogee alt
513.3 km
Semi-major
6,886.2 km
B*
8.7700e-5
RAAN
327.0976°
Arg perigee
296.5471°
Mean anomaly
63.4781°
Rev number
2,262

§ Raw data

HJS-9A1 68831U 26091A   26263.07340433  .00001555  00000+0  87700-4 0  99982 68831  55.0049 327.0976 0007485 296.5471  63.4781 15.19252052 22626

JSON: /api/v1/satellites/68831 · /tle

For live sub-satellite position, see the globe view (requires WebGL).

§ Visibility from observer

Set your observer location to see the next 7 days of passes ≥ 10°. The values pass through the URL so the page stays shareable.

No JS? Fill the form by hand. The geolocation button needs JavaScript.